Location: Anumalkud?ru
(16.4847°N, 80.6636°E)
Time: 23:17:29
(UTC+00:00)

Cosmos 773 Rocket - Pass Details

Date: 11 April 2026
Orbit: 742 x 771 km, 74.1° (Epoch: 9 May)

Event Time Altitude Azimuth Distance (km) Brightness Sun altitude
Rises 13:06:15 0° 353° (N) 3,171 7.4 -4.2°
Reaches altitude 10° 13:08:38 10° 357° (N) 2,249 6.6 -4.8°
Maximum altitude 13:13:38 58° 76° (ENE) 868 4.0 -5.9°
Drops below altitude 10° 13:18:39 10° 155° (SSE) 2,258 6.1 -7.1°
Sets 13:21:03 0° 159° (SSE) 3,186 6.9 -7.7°
